Location: Wellington
(41.3000°S, 174.7830°E)
Time: 18:43:55
(UTC+13:00)

ISS - Pass Details

Date: 31 January 2019
Orbit: 403 x 411 km, 51.6° (Epoch: 22 February)

Event Time Altitude Azimuth Distance (km) Brightness Sun altitude
Exits shadow 04:36:03 32° 18° (NNE) 746 -2.8 -17.6°
Maximum altitude 04:36:40 35° 43° (NE) 698 -2.7 -17.5°
Drops below altitude 10° 04:39:46 10° 110° (ESE) 1,497 0.1 -17.1°
Sets 04:41:58 0° 119° (ESE) 2,364 1.6 -16.8°
